User: anonymous
Location: Unspecified
(0.0000°N, 0.0000°E)
Time: 17:36:15
(UTC+00:00)
Language:

Tiros 1 - Orbit

View from above orbital plane
View from above orbital plane
View from above satellite
View from above satellite

Ground track
Ground track

The orbit data is extracted from the following two-line orbital elements,

1 00029U 60002B   14109.43214389  .00001281  00000-0  22721-3 0  1944
2 00029 048.3782 126.6574 0024913 325.4239 034.5051 14.73137535886574
Epoch (UTC): 19 April 2014 10:22:17
Eccentricity: 0.0024913
inclination: 48.3782°
perigee height: 633 km
apogee height: 668 km
right ascension of ascending node: 126.6574°
argument of perigee: 325.4239°
revolutions per day: 14.73137535
mean anomaly at epoch: 34.5051°
orbit number at epoch: 88657

The dashed part of the orbit path shows where the satellite is in the earth's shadow,  

DLR